Location: Caltech
(34.1382°N, 118.1253°W)
Time: 11:29:27
(UTC-07:00)

ISS - Visible Passes

Search period start: 15 May 2021 00:00
Search period end: 25 May 2021 00:00
Orbit: 417 x 422 km, 51.6° (Epoch: 15 May)

Date Brightness Start Highest point End Pass type
(mag) Time Alt. Az. Time Alt. Az. Time Alt. Az.
15 May -1.8 04:03:31 10° NNW 04:06:36 32° NE 04:09:39 10° ESE visible
15 May -3.9 20:43:49 10° SW 20:47:09 84° SE 20:50:31 10° NE visible
15 May -0.3 22:22:48 10° NW 22:24:21 13° NNW 22:25:55 10° N visible
16 May -1.0 03:16:26 10° NNW 03:19:01 20° NNE 03:21:36 10° E visible
16 May -3.2 04:52:46 10° WNW 04:55:54 36° SW 04:59:02 10° SSE visible
16 May -0.8 21:34:16 10° WNW 21:36:42 18° NNW 21:39:08 10° NNE visible
17 May-0.202:33:43ENE02:33:43ENE02:27:10NNWvisible
17 May -3.9 04:07:12 33° WNW 04:08:31 73° SW 04:11:52 10° SE visible
17 May -1.5 20:46:08 10° W 20:49:06 28° NW 20:52:05 10° NNE visible
19 May -0.5 20:49:47 10° NW 20:51:18 12° NNW 20:52:50 10° N visible
24 May -0.3 23:23:20 10° N 23:23:35 11° N 23:23:35 11° N visible
